Location: Asheville, NC
(35.6000°N, 82.5500°W)
Time: 22:32:47
(UTC-04:00)

Hubble Space Telescope - Pass Details

Date: 08 December 2017
Orbit: 537 x 541 km, 28.5° (Epoch: 25 April)

Event Time Altitude Azimuth Distance (km) Brightness Sun altitude
Rises 19:42:47 0° 243° (WSW) 2,674 5.4 -28.9°
Reaches altitude 10° 19:45:16 10° 232° (SW) 1,784 4.1 -29.4°
Enters shadow 19:46:57 20° 214° (SSW) 1,289 3.1 -29.7°
